#timestamp,LO_Frequency,Hit,StdDev 
1502881215.0,286046999.8,N,0.8
1502881215.9,286046999.8,N,0.8
1502881235.8,286047000.0,N,0.7
1502881255.6,286047000.9,N,0.6
1502881275.4,286047000.9,N,0.6
1502881295.3,286047000.5,N,0.6
1502881315.1,286047000.5,N,0.6
1502881335.9,286047000.3,N,0.5
1502881355.7,286047000.6,N,0.5
1502881375.5,286047000.3,N,0.5
1502881395.4,286047000.7,N,0.5
1502881415.2,286047000.2,N,0.5
1502881435.1,286046999.7,N,0.5
1502881436.0,286046999.7,N,0.5
1502881455.8,286046999.7,N,0.5
1502881475.6,286047000.3,N,0.5
1502881495.5,286047000.0,N,0.5
1502881515.3,286047002.7,Y,0.0
1502881535.2,286047002.3,P,1.0
1502881555.9,286047000.1,N,1.0
1502881575.7,286046999.7,N,1.0
1502881595.6,286046999.9,N,0.9
1502881615.4,286047000.9,N,0.9
1502881635.2,286047000.6,N,0.8
1502881655.1,286047000.0,N,0.8
1502881656.0,286047000.0,N,0.7
1502881675.8,286047000.9,N,0.7
1502881695.7,286047000.0,N,0.7
1502881715.5,286047000.9,N,0.7
1502881735.3,286047000.2,N,0.7
1502881755.2,286047002.7,Y,0.0
1502881775.0,286046999.8,P,0.3
1502881775.9,286046999.8,N,0.3
1502881795.8,286047000.2,N,0.3
1502881815.6,286046999.9,N,0.3
1502881835.4,286046999.9,N,0.2
1502881855.3,286046999.8,N,0.2
1502881875.1,286047002.8,Y,0.0
1502881895.9,286047002.3,P,1.2
1502881915.7,286047000.1,N,1.1
1502881935.5,286047001.6,N,1.0
1502881955.4,286047001.6,N,0.9
1502881975.2,286047002.6,N,1.0
1502881995.0,286047002.2,N,1.0
1502881996.0,286047002.2,N,0.9
1502882015.8,286047002.8,N,1.0
1502882035.6,286047000.2,N,1.0
1502882055.5,286047000.2,N,1.1
1502882075.3,286047001.2,N,1.0
1502882095.1,286046999.5,N,1.1
1502882115.9,286046998.9,N,1.2
1502882135.7,286046998.2,N,1.4
1502882155.6,286046999.3,N,1.4
1502882175.4,286046997.1,N,1.6
1502882195.2,286046999.5,N,1.6
1502882215.1,286046997.0,N,1.7
1502882216.0,286046997.0,N,1.8
1502882235.8,286046996.8,N,1.9
1502882255.7,286046996.9,N,2.0
1502882275.5,286046997.7,N,2.0
1502882295.3,286046997.5,N,2.0
1502882315.2,286046997.7,N,2.0
1502882335.0,286046998.0,N,2.0
1502882335.9,286046998.0,N,2.0
1502882355.7,286046995.5,N,2.1
1502882375.6,286046995.5,N,2.2
1502882395.4,286046994.9,N,2.3
1502882415.3,286046995.3,N,2.4
1502882435.1,286046998.0,N,2.3
1502882436.0,286046998.0,N,2.3
1502882455.8,286046997.6,N,2.2
1502882475.7,286046995.4,N,2.2
1502882495.5,286046995.5,N,2.1
1502882515.4,286046996.3,N,2.0
1502882535.2,286046994.8,N,1.9
1502882555.0,286046994.5,N,1.7
1502882555.9,286046994.5,Y,0.0
1502882575.8,286046994.9,P,1.3
1502882595.6,286046997.3,N,1.2
1502882615.5,286046996.7,N,1.0
1502882635.3,286046997.2,N,0.9
1502882655.1,286046997.7,N,0.9
1502882675.9,286046998.0,N,0.9
1502882695.7,286046998.0,N,0.9
1502882715.5,286046995.2,Y,0.0
1502882735.4,286046998.9,P,0.9
1502882755.2,286046999.0,N,0.8
1502882775.1,286046999.2,N,0.8
1502882776.0,286046999.2,N,0.8
1502882795.8,286046999.6,N,0.8
1502882815.6,286046997.2,Y,0.0
1502882835.5,286046996.7,P,1.1
1502882855.3,286046996.7,P,1.0
1502882875.2,286046997.8,N,0.9
1502882895.9,286046997.8,N,0.8
1502882915.7,286046997.7,N,0.7
1502882935.6,286046997.4,Y,0.0
1502882955.4,286047000.3,P,1.4
1502882975.3,286047000.0,N,1.2
1502882995.1,286047000.8,N,1.2
1502882996.0,286047000.8,N,1.2
1502883015.8,286047001.2,N,1.2
1502883035.7,286046998.3,N,1.3
1502883055.5,286046999.0,N,1.2
1502883075.3,286046998.5,N,1.2
1502883095.2,286046998.6,N,1.2
1502883115.0,286047001.2,N,1.2
1502883115.9,286047001.2,N,1.3
1502883135.8,286046998.2,N,1.3
1502883155.6,286046998.3,N,1.3
1502883175.4,286046998.7,N,1.3
1502883195.3,286047001.1,N,1.3
1502883215.1,286047001.2,N,1.3
1502883235.9,286047000.7,N,1.3
1502883255.7,286047000.9,N,1.3
1502883275.6,286046998.7,N,1.3
1502883295.4,286046998.7,N,1.3
1502883315.2,286046999.0,N,1.2
1502883335.1,286046998.4,N,1.2
1502883336.0,286046998.4,N,1.2
1502883355.8,286046996.9,N,1.3
1502883375.6,286046997.7,N,1.3
1502883395.5,286046997.7,N,1.3
1502883415.3,286046995.0,Y,0.0
1502883435.2,286046996.8,P,1.3
1502883455.0,286046997.9,N,1.0
1502883455.9,286046997.9,N,0.9
1502883475.8,286046997.0,Y,0.0
1502883495.6,286046998.7,P,0.4
1502883515.4,286046998.5,P,0.3
1502883535.3,286046998.7,P,0.3
1502883555.1,286046998.5,Y,0.0
1502883575.9,286047002.5,P,2.0
1502883595.7,286047000.1,N,1.7
1502883615.5,286047002.8,N,1.8
1502883635.4,286047002.8,N,1.8
1502883655.2,286047002.7,N,1.7
1502883675.1,286047000.2,N,1.6
1502883676.0,286047000.2,N,1.6
1502883695.8,286047001.7,N,1.5
1502883715.6,286047001.7,N,1.4
1502883735.5,286047001.8,N,1.4
1502883755.3,286047004.3,Y,0.0
1502883775.2,286046999.8,P,0.8
1502883795.9,286046999.8,N,0.7
1502883815.7,286046999.7,N,0.7
1502883835.6,286047002.8,Y,0.0
1502883855.4,286047002.6,P,1.2
1502883875.3,286047001.5,N,1.0
1502883895.1,286047002.3,N,0.9
1502883915.8,286047001.8,N,0.8
1502883935.7,286047004.2,Y,0.0
1502883955.5,286047000.3,P,0.7
1502883975.4,286047002.3,P,0.8
1502883995.2,286047001.8,N,0.7
1502884015.0,286047001.9,N,0.7
1502884015.9,286047001.9,N,0.6
1502884035.8,286047002.1,Y,0.0
1502884055.6,286047001.0,P,0.3
1502884075.5,286047000.3,N,0.5
1502884095.3,286047002.8,P,0.9
1502884115.1,286047002.7,N,1.0
1502884135.9,286047002.6,N,0.9
1502884155.7,286047001.9,N,0.9
1502884175.5,286047002.5,N,0.8
1502884195.4,286047001.9,N,0.8
1502884215.2,286047001.6,N,0.8
1502884235.1,286047002.1,N,0.7
1502884236.0,286047002.1,N,0.7
1502884255.8,286047001.3,N,0.7
1502884275.7,286047002.1,N,0.7
1502884295.5,286047001.6,N,0.7
1502884315.3,286047001.6,N,0.6
1502884335.2,286047001.8,N,0.6
1502884355.0,286047001.3,N,0.6
1502884355.9,286047001.3,N,0.6
1502884375.8,286047001.6,N,0.6
1502884395.6,286047001.5,N,0.6
1502884415.4,286047001.4,N,0.6
1502884435.3,286047004.0,Y,0.0
1502884455.1,286047002.7,P,0.5
1502884475.9,286047000.0,N,1.1
1502884495.7,286047002.4,N,1.0
1502884515.5,286047002.5,N,1.0
1502884535.4,286047002.8,N,1.0
1502884555.2,286047002.5,N,0.9
1502884575.0,286047002.1,N,0.9
1502884575.9,286047002.1,N,0.8
1502884595.8,286047001.6,N,0.8
1502884615.6,286047001.5,N,0.8
1502884635.5,286047002.1,N,0.7
1502884655.3,286047001.9,N,0.7
1502884675.1,286047002.0,N,0.7
1502884695.9,286047001.6,N,0.7
1502884715.7,286047004.3,Y,0.0
1502884735.6,286047000.5,P,0.7
1502884755.4,286047000.0,N,0.8
1502884775.2,286047000.4,N,0.7
1502884795.1,286047000.4,N,0.7
1502884796.0,286047000.4,N,0.6
